Tracking 17884 objects as of 7-December-2016
HD Live streaming from Space Station
objects crossing your sky now

GOES 4 AKM

Track GOES 4 AKM now!


NORAD ID: 11970
Int'l Code: 1980-074C
Perigee: 33,777.0 km
Apogee: 50,281.3 km
Inclination: 23.4 °
Period: 1,766.2 minutes
Semi major axis: 48400 km
RCS: 0.003 m2 (small)
Launch date: September 9, 1980
Source: United States (US)
Launch site: AIR FORCE EASTERN TEST RANGE (AFETR)

Note: This is a ROCKET BODY
Your satellite tracking list
Your tracking list is empty





NASA's NSSDC Master Catalog

Two Line Element Set (TLE):
1 11970U 80074C   16341.60611859 -.00000177  00000-0  00000+0 0  9993
2 11970  23.4049 344.1372 1704986 186.5468 229.8385  0.81533019107880
Source of the keplerian elements: AFSPC